TimeCDT,TemperatureF,Dew PointF,Humidity,Sea Level PressureIn,VisibilityMPH,Wind Direction,Wind SpeedMPH,Gust SpeedMPH,PrecipitationIn,Events,Conditions,WindDirDegrees,DateUTC
12:19 AM,73.0,71.1,93,29.80,6.0,SE,10.4,-,N/A,,Overcast,130,2014-04-04 05:19:00
12:49 AM,73.4,71.6,94,29.80,5.0,SE,11.5,-,N/A,,Overcast,140,2014-04-04 05:49:00
12:53 AM,73.0,71.1,93,29.81,5.0,SE,10.4,-,N/A,,Overcast,140,2014-04-04 05:53:00
1:33 AM,73.0,71.1,93,29.79,4.0,SE,11.5,-,N/A,,Overcast,140,2014-04-04 06:33:00
1:50 AM,73.4,71.6,94,29.79,4.0,SE,9.2,-,N/A,,Overcast,140,2014-04-04 06:50:00
1:53 AM,73.0,71.1,93,29.80,5.0,SE,10.4,-,N/A,,Overcast,140,2014-04-04 06:53:00
2:53 AM,73.0,71.1,93,29.83,3.0,SSE,4.6,-,0.00,Rain,Light Rain,150,2014-04-04 07:53:00
3:46 AM,73.0,71.1,93,29.86,2.5,WSW,3.5,-,0.02,Rain,Light Rain,240,2014-04-04 08:46:00
3:53 AM,73.0,71.1,93,29.86,2.5,SW,3.5,-,0.02,Rain,Light Rain,230,2014-04-04 08:53:00
4:00 AM,72.0,71.1,97,29.86,3.0,WSW,3.5,-,0.00,Rain,Light Rain,250,2014-04-04 09:00:00
4:23 AM,72.0,71.1,97,29.87,3.0,WNW,4.6,-,0.00,,Overcast,290,2014-04-04 09:23:00
4:53 AM,72.0,71.1,97,29.85,3.0,Calm,Calm,-,0.00,,Overcast,0,2014-04-04 09:53:00
5:01 AM,72.0,71.1,97,29.84,3.0,Calm,Calm,-,N/A,,Overcast,0,2014-04-04 10:01:00
5:26 AM,72.0,71.1,97,29.85,2.5,SSE,5.8,-,N/A,,Overcast,160,2014-04-04 10:26:00
5:33 AM,72.0,71.1,97,29.86,3.0,South,4.6,-,N/A,,Overcast,180,2014-04-04 10:33:00
5:53 AM,72.0,71.1,97,29.86,4.0,South,3.5,-,N/A,,Overcast,170,2014-04-04 10:53:00
6:42 AM,72.0,71.1,97,29.88,3.0,NW,3.5,-,N/A,,Mostly Cloudy,310,2014-04-04 11:42:00
6:53 AM,72.0,71.1,97,29.86,2.5,North,8.1,-,N/A,,Overcast,360,2014-04-04 11:53:00
7:02 AM,72.0,70.0,93,29.87,2.5,North,9.2,-,N/A,,Mostly Cloudy,350,2014-04-04 12:02:00
7:10 AM,72.0,70.0,93,29.87,2.5,NNW,11.5,-,N/A,,Overcast,340,2014-04-04 12:10:00
7:14 AM,66.9,66.0,97,29.88,3.0,North,27.6,38.0,N/A,,Overcast,10,2014-04-04 12:14:00
7:21 AM,64.0,57.9,80,29.88,9.0,North,25.3,38.0,N/A,,Overcast,10,2014-04-04 12:21:00
7:32 AM,64.9,55.9,73,29.89,10.0,North,20.7,29.9,N/A,,Mostly Cloudy,10,2014-04-04 12:32:00
7:53 AM,64.0,55.9,75,29.91,10.0,North,19.6,-,N/A,,Partly Cloudy,10,2014-04-04 12:53:00
8:53 AM,64.0,48.0,56,29.97,10.0,North,23.0,32.2,N/A,,Clear,10,2014-04-04 13:53:00
9:53 AM,64.9,45.0,48,30.03,10.0,North,24.2,31.1,N/A,,Clear,360,2014-04-04 14:53:00
10:53 AM,68.0,43.0,40,30.02,10.0,North,28.8,38.0,N/A,,Scattered Clouds,10,2014-04-04 15:53:00
11:53 AM,70.0,43.0,38,30.02,10.0,North,27.6,35.7,N/A,,Clear,360,2014-04-04 16:53:00
12:53 PM,73.0,44.1,35,30.01,10.0,North,26.5,34.5,N/A,,Clear,10,2014-04-04 17:53:00
1:53 PM,75.0,43.0,32,30.01,10.0,NNE,25.3,33.4,N/A,,Clear,20,2014-04-04 18:53:00
2:53 PM,75.0,43.0,32,30.01,10.0,NNE,18.4,27.6,N/A,,Clear,30,2014-04-04 19:53:00
3:53 PM,75.9,44.1,32,29.99,10.0,NE,16.1,-,N/A,,Clear,40,2014-04-04 20:53:00
4:53 PM,75.0,44.1,33,29.97,10.0,NNE,17.3,21.9,N/A,,Clear,20,2014-04-04 21:53:00
5:53 PM,73.9,44.1,34,29.97,10.0,North,11.5,-,N/A,,Clear,10,2014-04-04 22:53:00
6:53 PM,72.0,44.1,37,29.98,10.0,North,12.7,-,N/A,,Clear,10,2014-04-04 23:53:00
7:53 PM,66.9,45.0,45,29.98,10.0,North,10.4,-,N/A,,Clear,360,2014-04-05 00:53:00
8:53 PM,64.9,44.1,47,30.00,10.0,North,10.4,-,N/A,,Clear,360,2014-04-05 01:53:00
9:53 PM,63.0,44.1,50,30.00,10.0,North,11.5,-,N/A,,Clear,360,2014-04-05 02:53:00
10:53 PM,61.0,43.0,52,30.01,10.0,North,11.5,-,N/A,,Clear,360,2014-04-05 03:53:00
11:53 PM,60.1,44.1,55,30.02,10.0,North,10.4,-,N/A,,Clear,10,2014-04-05 04:53:00